Cordova, AK

10:15 AM AKST on December 05, 2016 (GMT -0900)
Cordova-Smith

Weather History for PACV - January, 2013

Change the Weather History Date:

Sunday, January 20, 2013

  Actual Average Record
Temperature  
Mean Temperature 39 °F -  
Max Temperature 42 °F 31 °F 56 °F (1961)
Min Temperature 36 °F 18 °F -19 °F (1989)
Degree Days  
Heating Degree Days 26    
Moisture  
Dew Point 34 °F    
Average Humidity 80    
Maximum Humidity 87    
Minimum Humidity 70    
Precipitation  
Precipitation 0.56 in - - ()
Snow  
Snow 0.00 in - - ()
Snow Depth 5.00 in    
Sea Level Pressure  
Sea Level Pressure 29.94 in    
Wind  
Wind Speed 8 mph (ESE)    
Max Wind Speed 18 mph    
Max Gust Speed 33 mph    
Visibility 9 miles    
Events Rain    
Averages and records for this station are not official NWS values.
T = Trace of Precipitation, MM = Missing Value Source: NWS Daily Summary

Daily Weather History Graph

Daily Weather History Graph

Search for Another Location

Airport or City:

Trip Planner

Search our weather history database for the weather conditions in past years. The results will help you decide how hot, cold, wet, or windy it might be!

Date:

Astronomy

Jan. 20, 2013 Rise Set
Actual Time 9:23 AM AKST 4:23 PM AKST
Civil Twilight 8:31 AM AKST 5:15 PM AKST
Nautical Twilight 7:37 AM AKST 6:09 PM AKST
Astronomical Twilight 6:47 AM AKST 6:59 PM AKST
Moon 11:33 AM AKST (1/20) 3:57 AM AKST (1/20)
Length of Visible Light 8h 44m
Length of Day
6h 59m
Waxing Gibbous, 67% of the Moon is Illuminated
Jan 20
Waxing Gibbous
Jan 26
Full
Feb 3
Last Quarter
Feb 9
New
Feb 17
First Quarter

Hourly Weather History & Observations

Time (AKST) Temp. Windchill Dew Point Humidity Pressure Visibility Wind Dir Wind Speed Gust Speed Precip Events Conditions
12:53 AM 36.0 °F 29.0 °F 30.9 °F 82% 30.08 in 10.0 mi East 9.2 mph 23.0 mph 0.01 in Rain Light Rain
1:53 AM 37.9 °F 32.1 °F 32.0 °F 79% 30.07 in 10.0 mi East 8.1 mph - 0.01 in Rain Light Rain
3:53 AM 39.0 °F 34.8 °F 34.0 °F 82% 30.03 in 10.0 mi East 5.8 mph - 0.02 in Rain Light Rain
4:39 AM 39.2 °F 32.0 °F 33.8 °F 81% 30.02 in 9.0 mi East 11.5 mph 18.4 mph 0.01 in Rain Light Rain
4:53 AM 39.0 °F 31.8 °F 34.0 °F 82% 30.02 in 9.0 mi ESE 11.5 mph 18.4 mph 0.02 in Rain Light Rain
5:53 AM 39.0 °F 33.4 °F 34.0 °F 82% 30.00 in 10.0 mi ESE 8.1 mph 16.1 mph 0.03 in Rain Light Rain
6:14 AM 39.2 °F 37.0 °F 33.8 °F 81% 29.99 in 10.0 mi Variable 3.5 mph - 0.01 in Rain Light Rain
6:53 AM 39.9 °F 33.9 °F 34.0 °F 79% 29.98 in 10.0 mi East 9.2 mph - 0.02 in Rain Light Rain
7:37 AM 39.2 °F 35.0 °F 35.6 °F 87% 29.96 in 9.0 mi ESE 5.8 mph - 0.02 in Rain Light Rain
7:53 AM 39.9 °F 34.5 °F 34.0 °F 79% 29.96 in 8.0 mi ESE 8.1 mph 20.7 mph 0.03 in Rain Light Rain
8:36 AM 39.2 °F - 35.6 °F 87% 29.95 in 10.0 mi Calm Calm - 0.01 in Rain Light Rain
8:53 AM 39.0 °F 36.8 °F 35.1 °F 86% 29.95 in 9.0 mi ESE 3.5 mph - 0.02 in Rain Light Rain
9:03 AM 39.2 °F 34.2 °F 33.8 °F 81% 29.95 in 6.0 mi ESE 6.9 mph 17.3 mph 0.01 in Rain Light Rain
9:53 AM 39.9 °F 33.4 °F 34.0 °F 79% 29.94 in 8.0 mi ESE 10.4 mph 16.1 mph 0.04 in Rain Light Rain
10:53 AM 39.0 °F 34.0 °F 35.1 °F 86% 29.94 in 4.0 mi East 6.9 mph - 0.07 in Rain Rain
11:53 AM 39.9 °F 32.5 °F 34.0 °F 79% 29.91 in 5.0 mi East 12.7 mph 19.6 mph 0.08 in Rain Light Rain
12:53 PM 39.9 °F 32.5 °F 34.0 °F 79% 29.88 in 9.0 mi East 12.7 mph 20.7 mph 0.05 in Rain Light Rain
1:53 PM 39.9 °F 31.8 °F 34.0 °F 79% 29.86 in 6.0 mi ESE 15.0 mph 24.2 mph 0.04 in Rain Light Rain
2:53 PM 39.9 °F 30.8 °F 34.0 °F 79% 29.86 in 5.0 mi East 18.4 mph 28.8 mph 0.07 in Rain Light Rain
3:53 PM 39.9 °F 32.9 °F 34.0 °F 79% 29.86 in 7.0 mi ESE 11.5 mph 33.4 mph 0.04 in Rain Light Rain
4:53 PM 41.0 °F 33.9 °F 33.1 °F 73% 29.86 in 10.0 mi ESE 12.7 mph 21.9 mph 0.00 in Rain Light Rain
5:53 PM 39.9 °F 33.4 °F 34.0 °F 79% 29.88 in 10.0 mi ESE 10.4 mph - 0.00 in Rain Light Rain
6:53 PM 41.0 °F 36.4 °F 33.1 °F 73% 29.89 in 10.0 mi East 6.9 mph 21.9 mph 0.01 in   Overcast
7:53 PM 39.9 °F 37.8 °F 34.0 °F 79% 29.90 in 10.0 mi ENE 3.5 mph - N/A   Overcast
8:53 PM 41.0 °F 37.1 °F 33.1 °F 73% 29.91 in 10.0 mi East 5.8 mph - 0.00 in   Overcast
9:53 PM 42.1 °F 38.4 °F 33.1 °F 70% 29.91 in 10.0 mi ESE 5.8 mph - N/A   Overcast
10:53 PM 41.0 °F - 33.1 °F 73% 29.92 in 10.0 mi Calm Calm - N/A   Overcast